Regional Weather Roundup
Issued by NWS

Home | Current Version | Previous Version | Text Only | Print | Product List | Glossary On
Versions: 1 2 3 4 5 6 7 8 9 10 11 12 13 14 15 16 17 18 19 20 21 22 23 24 25 26 27 28
000
ASUS46 KPQR 271410
RWROR

OREGON REGIONAL WEATHER ROUNDUP
NATIONAL WEATHER SERVICE PORTLAND OR
700 AM PDT TUE SEP 27 2016

NOTE: "FAIR" INDICATES FEW OR NO CLOUDS BELOW 12,000 FEET WITH
NO SIGNIFICANT WEATHER AND/OR OBSTRUCTIONS TO VISIBILITY.

ORZ001>013-271500-
NORTHWEST OREGON


CITY           SKY/WX    TMP DP  RH WIND       PRES   REMARKS
ASTORIA        CLOUDY    60  56  86 NW13      30.17S
NEWPORT        CLEAR     52  52 100 CALM      30.17S
PORTLAND       PTCLDY    63  56  78 W9        30.14S
VANCOUVER WA   CLOUDY    64  56  75 NW6       30.14R
SCAPPOOSE      CLOUDY    62  56  80 N3        30.13S
HILLSBORO      CLOUDY    58  55  90 CALM      30.15S
AURORA         MOCLDY    60  56  86 CALM      30.16R
MCMINNVILLE    CLEAR     53  51  93 MISG      30.16R
SALEM          MOCLDY    59  56  89 N6        30.14S
CORVALLIS        N/A     54  52  94 NW3       30.16S
EUGENE         MOCLDY    55  52  89 NW3       30.14S
$$

ORZ021-028-271500-
SOUTHWEST OREGON


CITY           SKY/WX    TMP DP  RH WIND       PRES   REMARKS
NORTH BEND     CLOUDY    61  57  88 CALM      30.13S
BROOKINGS      PTCLDY    50  49  96 NE3       29.99F
ROSEBURG       CLEAR     56  49  77 CALM      30.12R
SEXTON SUMMIT  CLEAR     58  49  72 N13       30.15S
MEDFORD        CLEAR     55  48  77 CALM      30.08R
$$

ORZ014>016-041-271500-
COLUMBIA GORGE


CITY           SKY/WX    TMP DP  RH WIND       PRES   REMARKS
TROUTDALE      CLEAR     61  57  87 CALM      30.14R
THE DALLES     CLEAR     66  55  67 NW13      30.04R
$$

ORZ029>031-041-044-049-050-061>064-502-503-505>511-271500-
EASTERN OREGON


CITY           SKY/WX    TMP DP  RH WIND       PRES   REMARKS
REDMOND        CLEAR     46  36  68 CALM      30.13R
BEND           CLEAR     54  43  66 SW7       30.14S
PRINEVILLE     CLEAR     41  32  70 CALM      30.14S
KLAMATH FALLS  CLEAR     40  36  86 CALM      30.16S
LAKEVIEW       CLEAR     36  27  69 NW6       30.21S WCI  31
HERMISTON      CLEAR     53  48  83 CALM      30.01R
PENDLETON      CLEAR     60  45  57 S7        30.04R
JOHN DAY       CLEAR     55  37  51 E6        30.15R
MEACHAM        CLEAR     40  35  83 CALM      30.15S
LA GRANDE      CLEAR     46  30  53 CALM      30.11R
BAKER CITY     CLEAR     35  31  85 CALM      30.14S
BURNS          PTCLDY    38  30  73 W3        30.16S
ROME             N/A     44  32  62 S5        30.15R
ONTARIO        CLEAR     46  39  76 CALM      30.13R
$$




USA.gov is the U.S. government's official web portal to all federal, state and local government web resources and services.